owner,sensor,date,latitude,longitude,vertical_datum,direction_of_sea_water_velocity,sea_water_speed,upward_sea_water_velocity,qcFlag 
TABS,ioos:station:wmo:42050:1,2010-06-01T00:00:00Z,28.8425,-94.2433,2.0,277.7399005,13.06905123,-99999.0,'11111222,11111222,99999999' 
TABS,ioos:station:wmo:42050:1,2010-06-01T00:30:00Z,28.8425,-94.2433,2.0,283.2753764,13.32608345,-99999.0,'11111222,11111222,99999999' 
TABS,ioos:station:wmo:42050:1,2010-06-01T01:00:00Z,28.8425,-94.2433,2.0,289.573501,13.85034657,-99999.0,'11111222,11111222,99999999' 
TABS,ioos:station:wmo:42050:1,2010-06-01T01:30:00Z,28.8425,-94.2433,2.0,310.3010889,9.925789641,-99999.0,'11133222,11111222,99999999' 
TABS,ioos:station:wmo:42050:1,2010-06-01T02:00:00Z,28.8425,-94.2433,2.0,320.7894277,15.91328062,-99999.0,'11111222,11111222,99999999' 
TABS,ioos:station:wmo:42050:1,2010-06-01T02:30:00Z,28.8425,-94.2433,2.0,346.4780658,14.32715603,-99999.0,'11111222,11111222,99999999' 
TABS,ioos:station:wmo:42050:1,2010-06-01T03:00:00Z,28.8425,-94.2433,2.0,355.5904977,11.96542101,-99999.0,'11111222,11111222,99999999' 
TABS,ioos:station:wmo:42050:1,2010-06-01T03:30:00Z,28.8425,-94.2433,2.0,2.69053791,13.63502842,-99999.0,'11111222,11111222,99999999' 
TABS,ioos:station:wmo:42050:1,2010-06-01T04:00:00Z,28.8425,-94.2433,2.0,21.45955809,13.06575677,-99999.0,'11111222,11111222,99999999' 
TABS,ioos:station:wmo:42050:1,2010-06-01T04:30:00Z,28.8425,-94.2433,2.0,26.98545344,14.63322247,-99999.0,'11111222,11111222,99999999' 
TABS,ioos:station:wmo:42050:1,2010-06-01T05:00:00Z,28.8425,-94.2433,2.0,44.97665224,17.27462011,-99999.0,'11111222,11111222,99999999' 
TABS,ioos:station:wmo:42050:1,2010-06-01T05:30:00Z,28.8425,-94.2433,2.0,40.46234333,20.55639073,-99999.0,'11111222,11111222,99999999' 
TABS,ioos:station:wmo:42050:1,2010-06-01T06:00:00Z,28.8425,-94.2433,2.0,52.59229065,21.94296698,-99999.0,'11111222,11111222,99999999' 
TABS,ioos:station:wmo:42050:1,2010-06-01T06:30:00Z,28.8425,-94.2433,2.0,55.33101983,24.99843995,-99999.0,'11111222,11111222,99999999' 
TABS,ioos:station:wmo:42050:1,2010-06-01T07:00:00Z,28.8425,-94.2433,2.0,55.33338304,29.28965176,-99999.0,'11111222,11111222,99999999' 
TABS,ioos:station:wmo:42050:1,2010-06-01T07:30:00Z,28.8425,-94.2433,2.0,63.39343211,30.81302484,-99999.0,'11111222,11111222,99999999' 
TABS,ioos:station:wmo:42050:1,2010-06-01T08:00:00Z,28.8425,-94.2433,2.0,72.75454808,32.75244266,-99999.0,'11111222,11111222,99999999' 
TABS,ioos:station:wmo:42050:1,2010-06-01T08:30:00Z,28.8425,-94.2433,2.0,71.07633853,32.99324325,-99999.0,'11111222,11111222,99999999' 
TABS,ioos:station:wmo:42050:1,2010-06-01T09:00:00Z,28.8425,-94.2433,2.0,75.31632139,36.05764829,-99999.0,'11111222,11111222,99999999' 
TABS,ioos:station:wmo:42050:1,2010-06-01T09:30:00Z,28.8425,-94.2433,2.0,74.75059937,44.21688026,-99999.0,'11111222,11111222,99999999' 
TABS,ioos:station:wmo:42050:1,2010-06-01T10:00:00Z,28.8425,-94.2433,2.0,77.57171037,43.9089615,-99999.0,'11111222,11111222,99999999' 
TABS,ioos:station:wmo:42050:1,2010-06-01T10:30:00Z,28.8425,-94.2433,2.0,77.56724772,38.83060649,-99999.0,'11111222,11111222,99999999' 
TABS,ioos:station:wmo:42050:1,2010-06-01T11:00:00Z,28.8425,-94.2433,2.0,91.4604791,45.90491259,-99999.0,'11111222,11111222,99999999' 
TABS,ioos:station:wmo:42050:1,2010-06-01T11:30:00Z,28.8425,-94.2433,2.0,97.5181561,56.93948542,-99999.0,'11111222,11111222,99999999' 
TABS,ioos:station:wmo:42050:1,2010-06-01T12:00:00Z,28.8425,-94.2433,2.0,101.9393012,48.91823791,-99999.0,'11111222,11111222,99999999' 
TABS,ioos:station:wmo:42050:1,2010-06-01T12:30:00Z,28.8425,-94.2433,2.0,105.6743607,45.30476796,-99999.0,'11111222,11111222,99999999' 
TABS,ioos:station:wmo:42050:1,2010-06-01T13:00:00Z,28.8425,-94.2433,2.0,116.7376145,47.49877156,-99999.0,'11111222,11111222,99999999' 
TABS,ioos:station:wmo:42050:1,2010-06-01T13:30:00Z,28.8425,-94.2433,2.0,127.5397498,47.3812389,-99999.0,'11111222,11111222,99999999' 
TABS,ioos:station:wmo:42050:1,2010-06-01T14:00:00Z,28.8425,-94.2433,2.0,130.1955686,43.81779661,-99999.0,'11111222,11111222,99999999' 
TABS,ioos:station:wmo:42050:1,2010-06-01T14:30:00Z,28.8425,-94.2433,2.0,136.8555592,42.14445278,-99999.0,'11111222,11111222,99999999' 
TABS,ioos:station:wmo:42050:1,2010-06-01T15:00:00Z,28.8425,-94.2433,2.0,144.3487383,43.44182777,-99999.0,'11111222,11111222,99999999' 
TABS,ioos:station:wmo:42050:1,2010-06-01T15:30:00Z,28.8425,-94.2433,2.0,150.0450289,41.29640178,-99999.0,'11111222,11111222,99999999' 
TABS,ioos:station:wmo:42050:1,2010-06-01T16:00:00Z,28.8425,-94.2433,2.0,151.7700294,40.48544677,-99999.0,'11111222,11111222,99999999' 
TABS,ioos:station:wmo:42050:1,2010-06-01T16:30:00Z,28.8425,-94.2433,2.0,155.9127316,36.41039961,-99999.0,'11111222,11111222,99999999' 
TABS,ioos:station:wmo:42050:1,2010-06-01T17:00:00Z,28.8425,-94.2433,2.0,167.8043998,38.95920045,-99999.0,'11111222,11111222,99999999' 
TABS,ioos:station:wmo:42050:1,2010-06-01T17:30:00Z,28.8425,-94.2433,2.0,175.3508459,37.75421169,-99999.0,'11111222,11111222,99999999' 
TABS,ioos:station:wmo:42050:1,2010-06-01T18:00:00Z,28.8425,-94.2433,2.0,173.6783404,33.78542289,-99999.0,'11111222,11111222,99999999' 
TABS,ioos:station:wmo:42050:1,2010-06-01T18:30:00Z,28.8425,-94.2433,2.0,188.9099644,28.1497016,-99999.0,'11111222,11111222,99999999' 
TABS,ioos:station:wmo:42050:1,2010-06-01T19:00:00Z,28.8425,-94.2433,2.0,213.069583,27.67284048,-99999.0,'11111222,11111222,99999999' 
TABS,ioos:station:wmo:42050:1,2010-06-01T19:30:00Z,28.8425,-94.2433,2.0,226.2637763,28.20628299,-99999.0,'11111222,11111222,99999999' 
TABS,ioos:station:wmo:42050:1,2010-06-01T20:00:00Z,28.8425,-94.2433,2.0,236.7357559,35.42413443,-99999.0,'11111222,11111222,99999999' 
TABS,ioos:station:wmo:42050:1,2010-06-01T20:30:00Z,28.8425,-94.2433,2.0,255.5118755,33.85659906,-99999.0,'11111222,11111222,99999999' 
TABS,ioos:station:wmo:42050:1,2010-06-01T21:00:00Z,28.8425,-94.2433,2.0,271.2072508,38.45853091,-99999.0,'11111222,11111222,99999999' 
TABS,ioos:station:wmo:42050:1,2010-06-01T21:30:00Z,28.8425,-94.2433,2.0,285.0085111,35.60450112,-99999.0,'11111222,11111222,99999999' 
TABS,ioos:station:wmo:42050:1,2010-06-01T22:00:00Z,28.8425,-94.2433,2.0,289.1190862,35.50858206,-99999.0,'11111222,11111222,99999999' 
TABS,ioos:station:wmo:42050:1,2010-06-01T22:30:00Z,28.8425,-94.2433,2.0,291.3227239,29.31674777,-99999.0,'11111222,11111222,99999999' 
TABS,ioos:station:wmo:42050:1,2010-06-01T23:00:00Z,28.8425,-94.2433,2.0,306.598691,31.65035545,-99999.0,'11111222,11111222,99999999' 
TABS,ioos:station:wmo:42050:1,2010-06-01T23:30:00Z,28.8425,-94.2433,2.0,311.9764522,34.58324739,-99999.0,'11111222,11111222,99999999' 
TABS,ioos:station:wmo:42050:1,2010-06-02T00:00:00Z,28.8425,-94.2433,2.0,321.1280349,34.11483109,-99999.0,'11111222,11111222,99999999' 
TABS,ioos:station:wmo:42050:1,2010-06-02T00:30:00Z,28.8425,-94.2433,2.0,320.9722881,32.07875309,-99999.0,'11111222,11111222,99999999' 
TABS,ioos:station:wmo:42050:1,2010-06-02T01:00:00Z,28.8425,-94.2433,2.0,328.2322388,32.49875382,-99999.0,'11111222,11111222,99999999' 
TABS,ioos:station:wmo:42050:1,2010-06-02T01:30:00Z,28.8425,-94.2433,2.0,336.6069208,29.74501807,-99999.0,'11111222,11111222,99999999' 
TABS,ioos:station:wmo:42050:1,2010-06-02T02:00:00Z,28.8425,-94.2433,2.0,339.4967173,24.26732165,-99999.0,'11111222,11111222,99999999' 
TABS,ioos:station:wmo:42050:1,2010-06-02T02:30:00Z,28.8425,-94.2433,2.0,345.0203556,35.78613419,-99999.0,'11111222,11111222,99999999' 
TABS,ioos:station:wmo:42050:1,2010-06-02T03:00:00Z,28.8425,-94.2433,2.0,349.5241129,32.61364438,-99999.0,'11111222,11111222,99999999' 
TABS,ioos:station:wmo:42050:1,2010-06-02T03:30:00Z,28.8425,-94.2433,2.0,357.6376828,30.56598109,-99999.0,'11111222,11111222,99999999' 
TABS,ioos:station:wmo:42050:1,2010-06-02T04:00:00Z,28.8425,-94.2433,2.0,0.585045381,28.41148007,-99999.0,'11111222,11111222,99999999' 
TABS,ioos:station:wmo:42050:1,2010-06-02T04:30:00Z,28.8425,-94.2433,2.0,9.794805312,25.51186391,-99999.0,'11111222,11111222,99999999' 
TABS,ioos:station:wmo:42050:1,2010-06-02T05:00:00Z,28.8425,-94.2433,2.0,14.65790521,26.16143154,-99999.0,'11111222,11111222,99999999' 
TABS,ioos:station:wmo:42050:1,2010-06-02T05:30:00Z,28.8425,-94.2433,2.0,20.35002381,28.29605096,-99999.0,'11111222,11111222,99999999' 
TABS,ioos:station:wmo:42050:1,2010-06-02T06:00:00Z,28.8425,-94.2433,2.0,29.40639069,28.961376,-99999.0,'11111222,11111222,99999999' 
TABS,ioos:station:wmo:42050:1,2010-06-02T06:30:00Z,28.8425,-94.2433,2.0,42.79558709,32.35286695,-99999.0,'11111222,11111222,99999999' 
TABS,ioos:station:wmo:42050:1,2010-06-02T07:00:00Z,28.8425,-94.2433,2.0,48.23243302,39.37778308,-99999.0,'11111222,11111222,99999999' 
TABS,ioos:station:wmo:42050:1,2010-06-02T07:30:00Z,28.8425,-94.2433,2.0,51.36662277,37.36769996,-99999.0,'11111222,11111222,99999999' 
TABS,ioos:station:wmo:42050:1,2010-06-02T08:00:00Z,28.8425,-94.2433,2.0,53.36448388,39.61633123,-99999.0,'11111222,11111222,99999999' 
TABS,ioos:station:wmo:42050:1,2010-06-02T08:30:00Z,28.8425,-94.2433,2.0,59.45748003,42.2292375,-99999.0,'11111222,11111222,99999999' 
TABS,ioos:station:wmo:42050:1,2010-06-02T09:00:00Z,28.8425,-94.2433,2.0,63.8081737,35.70629076,-99999.0,'11111222,11111222,99999999' 
TABS,ioos:station:wmo:42050:1,2010-06-02T09:30:00Z,28.8425,-94.2433,2.0,66.84891572,42.80722486,-99999.0,'11111222,11111222,99999999' 
TABS,ioos:station:wmo:42050:1,2010-06-02T10:00:00Z,28.8425,-94.2433,2.0,79.54879422,67.91676155,-99999.0,'11111222,11111222,99999999' 
TABS,ioos:station:wmo:42050:1,2010-06-02T10:30:00Z,28.8425,-94.2433,2.0,81.37290429,49.39892408,-99999.0,'11111222,11111222,99999999' 
TABS,ioos:station:wmo:42050:1,2010-06-02T11:00:00Z,28.8425,-94.2433,2.0,90.82412133,56.31582548,-99999.0,'11111222,11111222,99999999' 
TABS,ioos:station:wmo:42050:1,2010-06-02T11:30:00Z,28.8425,-94.2433,2.0,99.41687628,58.06245258,-99999.0,'11111222,11111222,99999999' 
TABS,ioos:station:wmo:42050:1,2010-06-02T12:00:00Z,28.8425,-94.2433,2.0,107.5978867,53.25211357,-99999.0,'11111222,11111222,99999999' 
TABS,ioos:station:wmo:42050:1,2010-06-02T12:30:00Z,28.8425,-94.2433,2.0,114.0338053,49.72052494,-99999.0,'11111222,11111222,99999999' 
TABS,ioos:station:wmo:42050:1,2010-06-02T13:00:00Z,28.8425,-94.2433,2.0,121.7642519,47.86992793,-99999.0,'11111222,11111222,99999999' 
TABS,ioos:station:wmo:42050:1,2010-06-02T13:30:00Z,28.8425,-94.2433,2.0,129.0798094,45.79606315,-99999.0,'11111222,11111222,99999999' 
TABS,ioos:station:wmo:42050:1,2010-06-02T14:00:00Z,28.8425,-94.2433,2.0,132.4888838,40.9949875,-99999.0,'11111222,11111222,99999999' 
TABS,ioos:station:wmo:42050:1,2010-06-02T14:30:00Z,28.8425,-94.2433,2.0,142.578781,37.42173165,-99999.0,'11111222,11111222,99999999' 
TABS,ioos:station:wmo:42050:1,2010-06-02T15:00:00Z,28.8425,-94.2433,2.0,142.476675,37.71245152,-99999.0,'11111222,11111222,99999999' 
TABS,ioos:station:wmo:42050:1,2010-06-02T15:30:00Z,28.8425,-94.2433,2.0,148.8863433,34.11804508,-99999.0,'11111222,11111222,99999999' 
TABS,ioos:station:wmo:42050:1,2010-06-02T16:00:00Z,28.8425,-94.2433,2.0,152.283205,32.48768536,-99999.0,'11111222,11111222,99999999' 
TABS,ioos:station:wmo:42050:1,2010-06-02T16:30:00Z,28.8425,-94.2433,2.0,162.7043155,28.62427292,-99999.0,'11111222,11111222,99999999' 
TABS,ioos:station:wmo:42050:1,2010-06-02T17:00:00Z,28.8425,-94.2433,2.0,166.3208857,27.61321785,-99999.0,'11111222,11111222,99999999' 
TABS,ioos:station:wmo:42050:1,2010-06-02T17:30:00Z,28.8425,-94.2433,2.0,180.7222412,26.17208054,-99999.0,'11111222,11111222,99999999' 
TABS,ioos:station:wmo:42050:1,2010-06-02T18:00:00Z,28.8425,-94.2433,2.0,179.3440115,26.21171685,-99999.0,'11111222,11111222,99999999' 
TABS,ioos:station:wmo:42050:1,2010-06-02T18:30:00Z,28.8425,-94.2433,2.0,186.8878549,21.59587229,-99999.0,'11111222,11111222,99999999' 
TABS,ioos:station:wmo:42050:1,2010-06-02T19:00:00Z,28.8425,-94.2433,2.0,198.6399938,21.18107174,-99999.0,'11111222,11111222,99999999' 
TABS,ioos:station:wmo:42050:1,2010-06-02T19:30:00Z,28.8425,-94.2433,2.0,210.523277,18.52753896,-99999.0,'11111222,11111222,99999999' 
TABS,ioos:station:wmo:42050:1,2010-06-02T20:00:00Z,28.8425,-94.2433,2.0,229.372103,14.19050739,-99999.0,'11111222,11111222,99999999' 
TABS,ioos:station:wmo:42050:1,2010-06-02T20:30:00Z,28.8425,-94.2433,2.0,241.4508579,17.05353043,-99999.0,'11111222,11111222,99999999' 
TABS,ioos:station:wmo:42050:1,2010-06-02T21:00:00Z,28.8425,-94.2433,2.0,243.2903294,10.65713376,-99999.0,'11111222,11111222,99999999' 
TABS,ioos:station:wmo:42050:1,2010-06-02T21:30:00Z,28.8425,-94.2433,2.0,266.1311201,15.41512245,-99999.0,'11111222,11111222,99999999' 
TABS,ioos:station:wmo:42050:1,2010-06-02T22:00:00Z,28.8425,-94.2433,2.0,270.1293923,17.77004502,-99999.0,'11111222,11111222,99999999' 
TABS,ioos:station:wmo:42050:1,2010-06-02T22:30:00Z,28.8425,-94.2433,2.0,284.8005282,18.55562448,-99999.0,'11111222,11111222,99999999' 
TABS,ioos:station:wmo:42050:1,2010-06-02T23:00:00Z,28.8425,-94.2433,2.0,292.4451106,17.36546573,-99999.0,'11111222,11111222,99999999' 
TABS,ioos:station:wmo:42050:1,2010-06-02T23:30:00Z,28.8425,-94.2433,2.0,292.4917748,13.72388065,-99999.0,'11111222,11111222,99999999' 
TABS,ioos:station:wmo:42050:1,2010-06-03T00:00:00Z,28.8425,-94.2433,2.0,310.0931465,17.11106367,-99999.0,'11111222,11111222,99999999' 
TABS,ioos:station:wmo:42050:1,2010-06-03T00:30:00Z,28.8425,-94.2433,2.0,317.8965496,19.73227052,-99999.0,'11111222,11111222,99999999' 
TABS,ioos:station:wmo:42050:1,2010-06-03T01:00:00Z,28.8425,-94.2433,2.0,334.0307236,16.3510122,-99999.0,'11111222,11111222,99999999' 
TABS,ioos:station:wmo:42050:1,2010-06-03T01:30:00Z,28.8425,-94.2433,2.0,343.6412104,14.84082208,-99999.0,'11111222,11111222,99999999' 
TABS,ioos:station:wmo:42050:1,2010-06-03T02:00:00Z,28.8425,-94.2433,2.0,351.1273866,27.16508237,-99999.0,'11111222,11111222,99999999' 
TABS,ioos:station:wmo:42050:1,2010-06-03T02:30:00Z,28.8425,-94.2433,2.0,352.5741283,32.57321139,-99999.0,'11111222,11111222,99999999' 
TABS,ioos:station:wmo:42050:1,2010-06-03T03:00:00Z,28.8425,-94.2433,2.0,4.010190459,38.32382157,-99999.0,'11111222,11111222,99999999' 
TABS,ioos:station:wmo:42050:1,2010-06-03T03:30:00Z,28.8425,-94.2433,2.0,8.099292627,44.43318242,-99999.0,'11111222,11111222,99999999' 
TABS,ioos:station:wmo:42050:1,2010-06-03T04:00:00Z,28.8425,-94.2433,2.0,9.713203276,43.20939944,-99999.0,'11111222,11111222,99999999' 
TABS,ioos:station:wmo:42050:1,2010-06-03T04:30:00Z,28.8425,-94.2433,2.0,17.24414596,52.48933701,-99999.0,'11111222,11111222,99999999' 
TABS,ioos:station:wmo:42050:1,2010-06-03T05:00:00Z,28.8425,-94.2433,2.0,17.32599268,52.11461311,-99999.0,'11111222,11111222,99999999' 
TABS,ioos:station:wmo:42050:1,2010-06-03T05:30:00Z,28.8425,-94.2433,2.0,22.98326173,54.1157029,-99999.0,'11111222,11111222,99999999' 
TABS,ioos:station:wmo:42050:1,2010-06-03T06:00:00Z,28.8425,-94.2433,2.0,23.74600664,51.82770012,-99999.0,'11111222,11111222,99999999' 
TABS,ioos:station:wmo:42050:1,2010-06-03T06:30:00Z,28.8425,-94.2433,2.0,26.85287398,53.44269829,-99999.0,'11111222,11111222,99999999' 
TABS,ioos:station:wmo:42050:1,2010-06-03T07:00:00Z,28.8425,-94.2433,2.0,32.78966121,51.35216646,-99999.0,'11111222,11111222,99999999' 
TABS,ioos:station:wmo:42050:1,2010-06-03T07:30:00Z,28.8425,-94.2433,2.0,39.48214003,51.69571452,-99999.0,'11111222,11111222,99999999' 
TABS,ioos:station:wmo:42050:1,2010-06-03T08:00:00Z,28.8425,-94.2433,2.0,39.74768961,60.71255883,-99999.0,'11111222,11111222,99999999' 
TABS,ioos:station:wmo:42050:1,2010-06-03T08:30:00Z,28.8425,-94.2433,2.0,48.58369256,59.16617699,-99999.0,'11111222,11111222,99999999' 
TABS,ioos:station:wmo:42050:1,2010-06-03T09:00:00Z,28.8425,-94.2433,2.0,69.08186484,54.81263449,-99999.0,'11111222,11111222,99999999' 
TABS,ioos:station:wmo:42050:1,2010-06-03T09:30:00Z,28.8425,-94.2433,2.0,70.95108684,60.78879173,-99999.0,'11111222,11111222,99999999' 
TABS,ioos:station:wmo:42050:1,2010-06-03T10:00:00Z,28.8425,-94.2433,2.0,75.92342516,51.6406981,-99999.0,'11111222,11111222,99999999' 
TABS,ioos:station:wmo:42050:1,2010-06-03T10:30:00Z,28.8425,-94.2433,2.0,94.70598501,47.04860997,-99999.0,'11111222,11111222,99999999' 
TABS,ioos:station:wmo:42050:1,2010-06-03T11:00:00Z,28.8425,-94.2433,2.0,84.23084544,36.01240481,-99999.0,'11111222,11111222,99999999' 
TABS,ioos:station:wmo:42050:1,2010-06-03T11:30:00Z,28.8425,-94.2433,2.0,85.82461441,60.01930106,-99999.0,'11111222,11111222,99999999' 
TABS,ioos:station:wmo:42050:1,2010-06-03T12:00:00Z,28.8425,-94.2433,2.0,92.46022836,61.96711789,-99999.0,'11111222,11111222,99999999' 
TABS,ioos:station:wmo:42050:1,2010-06-03T12:30:00Z,28.8425,-94.2433,2.0,101.0818808,69.97479118,-99999.0,'11111222,11111222,99999999' 
TABS,ioos:station:wmo:42050:1,2010-06-03T13:00:00Z,28.8425,-94.2433,2.0,121.7158005,66.50087593,-99999.0,'11111222,11111222,99999999' 
TABS,ioos:station:wmo:42050:1,2010-06-03T13:30:00Z,28.8425,-94.2433,2.0,132.3501491,63.93424278,-99999.0,'11111222,11111222,99999999' 
TABS,ioos:station:wmo:42050:1,2010-06-03T14:00:00Z,28.8425,-94.2433,2.0,143.9330459,59.78987289,-99999.0,'11111222,11111222,99999999' 
TABS,ioos:station:wmo:42050:1,2010-06-03T14:30:00Z,28.8425,-94.2433,2.0,156.8286631,57.63959143,-99999.0,'11111222,11111222,99999999' 
TABS,ioos:station:wmo:42050:1,2010-06-03T15:00:00Z,28.8425,-94.2433,2.0,169.7568275,55.50460612,-99999.0,'11111222,11111222,99999999' 
TABS,ioos:station:wmo:42050:1,2010-06-03T15:30:00Z,28.8425,-94.2433,2.0,176.0204164,54.18062477,-99999.0,'11111222,11111222,99999999' 
TABS,ioos:station:wmo:42050:1,2010-06-03T16:00:00Z,28.8425,-94.2433,2.0,174.2211438,50.25538379,-99999.0,'11111222,11111222,99999999' 
TABS,ioos:station:wmo:42050:1,2010-06-03T16:30:00Z,28.8425,-94.2433,2.0,179.6344434,53.32108401,-99999.0,'11111222,11111222,99999999' 
TABS,ioos:station:wmo:42050:1,2010-06-03T17:00:00Z,28.8425,-94.2433,2.0,183.5157222,52.66913517,-99999.0,'11111222,11111222,99999999' 
TABS,ioos:station:wmo:42050:1,2010-06-03T17:30:00Z,28.8425,-94.2433,2.0,183.7826247,47.59369391,-99999.0,'11111222,11111222,99999999' 
TABS,ioos:station:wmo:42050:1,2010-06-03T18:00:00Z,28.8425,-94.2433,2.0,197.3792973,46.86974397,-99999.0,'11111222,11111222,99999999' 
TABS,ioos:station:wmo:42050:1,2010-06-03T18:30:00Z,28.8425,-94.2433,2.0,198.6044716,44.82232033,-99999.0,'11111222,11111222,99999999' 
TABS,ioos:station:wmo:42050:1,2010-06-03T19:00:00Z,28.8425,-94.2433,2.0,204.0452126,44.86311737,-99999.0,'11111222,11111222,99999999' 
TABS,ioos:station:wmo:42050:1,2010-06-03T19:30:00Z,28.8425,-94.2433,2.0,208.6033746,47.01849104,-99999.0,'11111222,11111222,99999999' 
TABS,ioos:station:wmo:42050:1,2010-06-03T20:00:00Z,28.8425,-94.2433,2.0,214.0525075,48.62876721,-99999.0,'11111222,11111222,99999999' 
TABS,ioos:station:wmo:42050:1,2010-06-03T20:30:00Z,28.8425,-94.2433,2.0,219.6163639,45.82464839,-99999.0,'11111222,11111222,99999999' 
TABS,ioos:station:wmo:42050:1,2010-06-03T21:00:00Z,28.8425,-94.2433,2.0,226.1550228,43.13521183,-99999.0,'11111222,11111222,99999999' 
TABS,ioos:station:wmo:42050:1,2010-06-03T21:30:00Z,28.8425,-94.2433,2.0,237.1077366,44.59944955,-99999.0,'11111222,11111222,99999999' 
TABS,ioos:station:wmo:42050:1,2010-06-03T22:00:00Z,28.8425,-94.2433,2.0,246.0990462,36.65300261,-99999.0,'11111222,11111222,99999999' 
TABS,ioos:station:wmo:42050:1,2010-06-03T22:30:00Z,28.8425,-94.2433,2.0,252.6187848,30.59705215,-99999.0,'11111222,11111222,99999999' 
TABS,ioos:station:wmo:42050:1,2010-06-03T23:00:00Z,28.8425,-94.2433,2.0,261.9685867,26.98464934,-99999.0,'11111222,11111222,99999999' 
TABS,ioos:station:wmo:42050:1,2010-06-03T23:30:00Z,28.8425,-94.2433,2.0,272.2192013,20.40529833,-99999.0,'11111222,11111222,99999999' 
TABS,ioos:station:wmo:42050:1,2010-06-04T00:00:00Z,28.8425,-94.2433,2.0,268.1366105,13.22699134,-99999.0,'11111222,11111222,99999999' 
TABS,ioos:station:wmo:42050:1,2010-06-04T00:30:00Z,28.8425,-94.2433,2.0,299.8548837,12.314191,-99999.0,'11111222,11111222,99999999' 
TABS,ioos:station:wmo:42050:1,2010-06-04T01:00:00Z,28.8425,-94.2433,2.0,342.6492783,11.19962946,-99999.0,'11111222,11111222,99999999' 
TABS,ioos:station:wmo:42050:1,2010-06-04T01:30:00Z,28.8425,-94.2433,2.0,352.2367797,15.02774101,-99999.0,'11111222,11111222,99999999' 
TABS,ioos:station:wmo:42050:1,2010-06-04T02:00:00Z,28.8425,-94.2433,2.0,4.976884492,28.58777361,-99999.0,'11111222,11111222,99999999' 
TABS,ioos:station:wmo:42050:1,2010-06-04T02:30:00Z,28.8425,-94.2433,2.0,14.93434964,26.77437021,-99999.0,'11111222,11111222,99999999' 
TABS,ioos:station:wmo:42050:1,2010-06-04T03:00:00Z,28.8425,-94.2433,2.0,19.75800474,28.90143422,-99999.0,'11111222,11111222,99999999' 
TABS,ioos:station:wmo:42050:1,2010-06-04T03:30:00Z,28.8425,-94.2433,2.0,21.97906835,31.7689109,-99999.0,'11111222,11111222,99999999' 
TABS,ioos:station:wmo:42050:1,2010-06-04T04:00:00Z,28.8425,-94.2433,2.0,31.94368365,28.48321962,-99999.0,'11111222,11111222,99999999' 
TABS,ioos:station:wmo:42050:1,2010-06-04T04:30:00Z,28.8425,-94.2433,2.0,47.70855915,30.22722614,-99999.0,'11111222,11111222,99999999' 
TABS,ioos:station:wmo:42050:1,2010-06-04T05:00:00Z,28.8425,-94.2433,2.0,62.83985598,32.29056364,-99999.0,'11111222,11111222,99999999' 
TABS,ioos:station:wmo:42050:1,2010-06-04T05:30:00Z,28.8425,-94.2433,2.0,68.85028684,32.98162519,-99999.0,'11111222,11111222,99999999' 
TABS,ioos:station:wmo:42050:1,2010-06-04T06:00:00Z,28.8425,-94.2433,2.0,75.08191353,36.08629934,-99999.0,'11111222,11111222,99999999' 
TABS,ioos:station:wmo:42050:1,2010-06-04T06:30:00Z,28.8425,-94.2433,2.0,83.42891321,38.36201507,-99999.0,'11111222,11111222,99999999' 
TABS,ioos:station:wmo:42050:1,2010-06-04T07:00:00Z,28.8425,-94.2433,2.0,88.59676392,39.20175634,-99999.0,'11111222,11111222,99999999' 
TABS,ioos:station:wmo:42050:1,2010-06-04T07:30:00Z,28.8425,-94.2433,2.0,87.89261419,44.87034767,-99999.0,'11111222,11111222,99999999' 
TABS,ioos:station:wmo:42050:1,2010-06-04T08:00:00Z,28.8425,-94.2433,2.0,94.59775268,45.03492201,-99999.0,'11111222,11111222,99999999' 
TABS,ioos:station:wmo:42050:1,2010-06-04T08:30:00Z,28.8425,-94.2433,2.0,100.3143556,43.00495437,-99999.0,'11111222,11111222,99999999' 
TABS,ioos:station:wmo:42050:1,2010-06-04T09:00:00Z,28.8425,-94.2433,2.0,107.2191292,42.32712842,-99999.0,'11111222,11111222,99999999' 
TABS,ioos:station:wmo:42050:1,2010-06-04T09:30:00Z,28.8425,-94.2433,2.0,112.8258869,46.83799526,-99999.0,'11111222,11111222,99999999' 
TABS,ioos:station:wmo:42050:1,2010-06-04T10:00:00Z,28.8425,-94.2433,2.0,113.7351491,49.91176414,-99999.0,'11111222,11111222,99999999' 
TABS,ioos:station:wmo:42050:1,2010-06-04T10:30:00Z,28.8425,-94.2433,2.0,115.6053272,50.46618868,-99999.0,'11111222,11111222,99999999' 
TABS,ioos:station:wmo:42050:1,2010-06-04T11:00:00Z,28.8425,-94.2433,2.0,122.1004473,49.79240906,-99999.0,'11111222,11111222,99999999' 
TABS,ioos:station:wmo:42050:1,2010-06-04T11:30:00Z,28.8425,-94.2433,2.0,124.469314,47.5116933,-99999.0,'11111222,11111222,99999999' 
TABS,ioos:station:wmo:42050:1,2010-06-04T12:00:00Z,28.8425,-94.2433,2.0,125.8863452,46.02678025,-99999.0,'11111222,11111222,99999999' 
TABS,ioos:station:wmo:42050:1,2010-06-04T12:30:00Z,28.8425,-94.2433,2.0,126.2999185,44.03617831,-99999.0,'11111222,11111222,99999999' 
TABS,ioos:station:wmo:42050:1,2010-06-04T13:00:00Z,28.8425,-94.2433,2.0,126.4993159,45.1569441,-99999.0,'11111222,11111222,99999999' 
TABS,ioos:station:wmo:42050:1,2010-06-04T13:30:00Z,28.8425,-94.2433,2.0,129.2839243,44.86982282,-99999.0,'11111222,11111222,99999999' 
TABS,ioos:station:wmo:42050:1,2010-06-04T14:00:00Z,28.8425,-94.2433,2.0,133.7346513,41.6304552,-99999.0,'11111222,11111222,99999999' 
TABS,ioos:station:wmo:42050:1,2010-06-04T14:30:00Z,28.8425,-94.2433,2.0,137.9514797,41.05959206,-99999.0,'11111222,11111222,99999999' 
TABS,ioos:station:wmo:42050:1,2010-06-04T15:00:00Z,28.8425,-94.2433,2.0,137.8885518,43.91763769,-99999.0,'11111222,11111222,99999999' 
TABS,ioos:station:wmo:42050:1,2010-06-04T15:30:00Z,28.8425,-94.2433,2.0,144.1137808,39.95388967,-99999.0,'11111222,11111222,99999999' 
TABS,ioos:station:wmo:42050:1,2010-06-04T16:00:00Z,28.8425,-94.2433,2.0,142.3061682,38.81001159,-99999.0,'11111222,11111222,99999999' 